GFSGBSN_con_lsi_000.txt.gz
Lid_Strength_Index
-0 -0 0 1 1 0 0 0 0 0 0 0 1 1 1 1 1 1 1 1 1 1 1 1 1 1 5 11 10 4 -1 -1 4 6 8 9 10 11 12 12 12 12 11 10 9 10 10
-1 -0 -0 -0 0 0 0 0 -0 -0 0 0 0 0 1 1 1 1 1 1 1 1 1 1 1 1 9 13 8 3 3 5 7 8 9 9 10 10 12 12 12 12 12 11 11 11 10
-0 -0 -0 -0 -0 -0 0 0 0 0 0 0 1 1 1 1 1 2 1 1 1 1 1 1 2 3 10 11 8 5 6 7 8 8 10 10 10 11 12 13 12 12 13 13 13 12 12
-0 -0 -0 -0 0 0 0 0 0 0 1 1 1 1 1 1 1 1 1 1 2 2 2 2 3 7 13 8 8 8 8 9 9 9 10 10 10 10 12 12 13 15 15 17 14 14 13
-1 -0 -0 0 0 0 1 1 1 1 1 1 2 2 2 2 2 2 2 2 2 2 2 3 7 11 13 6 9 8 8 9 9 10 10 8 10 12 13 15 16 17 18 18 16 13 14
-0 -1 -1 -0 -0 0 0 1 1 1 2 2 2 2 2 2 2 2 2 3 3 4 4 4 6 13 11 12 9 9 9 9 10 10 11 11 13 14 15 16 19 18 19 18 18 14 15
0 -0 -0 -0 -0 0 0 1 1 1 1 1 2 2 2 2 2 2 5 8 11 13 10 11 11 13 12 9 8 9 9 9 11 12 14 13 15 16 14 14 15 17 18 18 16 14 16
0 0 0 0 0 0 0 1 1 1 1 1 1 1 1 1 2 3 8 9 11 10 13 10 10 10 10 9 11 10 9 11 12 14 14 15 16 13 13 14 15 16 17 16 15 14 16
0 0 0 0 0 0 1 1 1 1 1 2 2 2 2 2 3 6 10 10 7 9 14 12 11 12 11 10 11 11 10 12 13 15 15 15 14 13 14 16 16 17 17 16 17 16 16
0 0 0 0 1 1 1 1 2 2 2 2 2 3 3 3 6 9 10 8 7 9 15 14 14 12 11 11 14 12 11 12 14 14 15 16 13 14 16 16 15 16 14 15 16 18 19
2 2 2 2 2 2 3 3 3 2 3 3 3 2 3 3 7 8 8 8 9 12 20 13 14 10 11 13 14 14 13 13 15 15 15 16 16 16 16 15 15 16 15 16 17 18 19
2 3 3 3 3 3 3 3 4 4 4 3 3 3 3 5 7 7 7 8 11 14 19 14 14 14 14 14 14 14 14 14 14 16 16 15 15 15 14 15 14 15 16 17 18 19 21
3 3 4 4 4 4 4 5 5 5 5 5 4 3 4 4 6 6 7 7 13 17 12 14 16 15 16 16 15 15 15 16 16 18 18 17 16 16 15 16 16 16 18 21 23 23 21
4 4 4 5 5 5 5 6 5 6 6 5 5 4 3 4 4 6 5 9 17 14 14 12 13 14 14 14 14 15 17 17 16 17 18 18 16 16 15 14 16 17 16 20 22 24 19
5 5 6 6 6 6 7 7 7 6 6 6 5 4 4 3 5 4 7 15 14 13 11 12 11 15 15 14 12 16 16 16 14 15 14 18 18 16 15 15 14 17 18 14 17 16 20
6 6 7 7 7 7 7 7 6 6 6 6 8 6 5 2 3 4 9 13 12 10 10 10 14 12 16 14 14 14 14 15 14 14 13 14 16 15 16 15 15 14 14 17 17 20 21
6 6 7 7 7 6 6 7 6 6 6 5 7 8 6 3 2 6 13 11 10 7 7 10 12 12 12 13 11 12 12 10 12 12 12 12 13 15 15 16 15 15 16 16 15 15 18
6 6 6 5 6 5 6 6 6 5 5 4 6 10 3 2 8 8 11 10 8 8 7 9 9 10 12 11 12 12 13 11 9 9 12 11 12 16 13 12 13 13 13 13 16 16 16
4 5 5 5 5 5 6 6 6 5 4 7 8 8 2 2 12 11 9 9 8 9 9 9 10 9 9 11 14 12 11 8 7 9 11 10 14 18 16 13 13 14 12 11 12 14 17
5 5 5 5 5 5 5 5 5 5 5 7 8 12 7 5 6 9 10 10 10 7 8 8 9 8 10 12 10 12 12 9 9 9 7 8 13 15 18 15 13 14 13 12 13 17 17
4 4 5 5 4 5 5 5 5 5 4 8 11 12 9 13 10 9 9 9 11 11 8 8 10 10 11 13 12 13 11 10 10 8 9 10 14 13 12 12 13 13 13 13 14 13 16
4 4 4 4 4 5 5 5 5 5 4 10 13 12 11 11 11 11 10 10 10 9 9 10 10 9 9 11 11 13 11 12 11 10 10 9 14 13 15 13 14 14 13 14 13 13 13
4 3 3 3 3 4 4 4 3 3 5 11 10 9 9 12 12 13 13 12 11 10 10 10 11 10 10 9 9 9 10 10 10 12 12 12 13 14 17 14 14 17 15 13 13 11 14
2 3 3 3 3 3 3 3 3 3 4 8 9 10 11 16 13 13 12 12 13 12 13 12 11 11 10 9 9 10 10 11 11 11 11 12 14 16 16 19 22 16 13 13 15 15 14
2 2 2 2 2 2 2 3 3 2 2 6 8 9 13 18 13 13 13 12 13 13 13 13 12 10 9 12 15 21 21 19 14 13 13 11 13 19 20 24 17 15 15 15 15 16 14
2 2 2 2 2 2 2 2 2 2 2 6 6 7 9 14 15 12 14 13 16 18 16 13 11 11 11 14 20 27 25 22 22 18 13 13 12 14 22 22 27 17 14 13 13 20 16
2 1 2 2 2 2 2 1 1 1 2 5 7 6 8 11 12 12 14 13 12 13 18 17 16 14 11 16 28 26 25 16 22 24 22 26 26 22 24 26 23 17 15 13 23 21 17
2 2 2 2 2 2 2 2 1 1 1 2 5 5 6 9 9 10 9 11 11 13 17 16 15 16 16 22 24 17 22 17 19 17 18 19 25 28 30 30 27 14 14 18 16 14 14
2 2 2 2 2 2 2 2 2 1 1 0 4 3 3 6 8 8 7 6 7 8 11 15 13 18 13 17 20 20 23 23 21 25 15 20 17 22 20 21 13 11 12 10 11 13 12

GFSGBSN_con_lsi_003.txt.gz
Lid_Strength_Index
-0 0 0 0 0 -0 -0 -0 -0 -0 -0 -0 0 0 0 0 0 0 0 0 0 0 1 1 1 1 5 12 9 3 -1 -1 5 6 7 9 10 10 11 11 11 11 11 10 10 10 10
-1 -0 -0 -0 0 0 -0 -0 -0 -0 -0 -0 -0 0 0 0 0 0 0 0 0 0 0 0 1 1 10 13 8 1 2 5 6 7 9 9 10 10 11 12 11 11 11 11 11 11 11
-0 -0 -1 -0 -0 0 -0 -0 -0 -0 -0 0 0 1 1 1 1 1 1 1 1 1 1 1 1 3 10 11 7 4 5 7 7 8 9 9 9 10 10 12 11 12 13 13 13 12 12
-0 -0 -0 -0 0 0 0 0 0 0 0 1 1 1 1 1 1 1 1 1 1 2 2 1 2 6 13 8 7 7 9 9 8 9 9 9 9 10 11 11 12 14 14 16 13 13 13
-1 -0 -0 -0 0 0 0 0 0 1 1 1 1 2 2 1 1 1 1 1 2 2 2 2 7 12 13 6 9 9 9 10 10 10 9 9 10 12 12 14 16 16 17 17 16 13 13
-0 -0 -0 -0 -0 -0 0 0 0 1 1 1 2 2 2 2 2 2 2 3 3 3 4 3 6 13 11 12 9 9 10 9 10 10 11 11 13 14 15 15 18 17 18 17 17 13 15
-0 -0 0 -0 0 -0 0 0 1 1 1 1 1 2 2 2 2 2 6 9 11 12 10 12 12 13 13 10 9 10 9 10 11 12 14 13 15 16 14 14 15 17 17 18 16 14 15
1 0 0 0 0 0 1 1 0 0 1 1 2 2 1 1 1 3 8 10 11 10 14 10 10 10 10 9 11 10 9 11 12 14 14 15 16 13 14 15 15 16 17 17 15 14 16
1 1 0 1 1 1 1 1 1 0 0 1 1 2 2 2 3 7 10 10 8 9 15 13 12 12 12 10 12 11 10 11 13 15 15 15 14 13 14 16 16 17 17 16 17 16 16
0 0 1 1 1 1 2 2 2 2 2 2 1 2 2 2 5 8 9 9 8 11 15 14 14 13 12 12 14 11 11 12 14 14 15 15 14 14 16 15 15 17 15 15 16 18 19
0 1 2 2 2 2 3 3 3 3 3 3 3 2 2 3 6 7 8 8 9 13 19 13 15 11 12 14 14 13 12 13 15 15 15 15 15 16 16 15 15 15 15 16 17 18 19
2 2 2 3 3 4 4 4 4 5 5 4 4 3 3 4 6 7 8 8 11 13 19 13 15 15 15 14 14 13 13 13 14 15 16 15 15 14 14 15 14 15 16 17 18 18 21
2 2 3 4 4 4 5 5 5 6 6 6 6 5 3 4 5 7 7 6 13 17 11 14 16 15 16 16 15 15 15 15 16 17 17 17 16 15 14 16 16 15 16 20 21 22 21
3 3 4 5 5 5 6 6 6 7 6 6 6 5 3 3 5 6 5 9 17 13 13 12 12 13 14 14 14 15 15 16 15 16 18 17 16 15 14 14 15 16 16 18 21 21 18
4 4 5 6 6 6 7 7 7 7 7 7 6 5 5 3 5 4 6 14 15 14 11 12 11 15 15 14 12 15 16 16 14 14 14 16 17 15 14 14 13 16 17 13 16 17 18
4 5 6 7 7 8 8 8 8 8 8 8 9 7 6 3 3 4 9 13 12 10 9 10 15 12 16 13 12 13 13 13 13 12 11 13 16 14 14 14 13 13 12 16 17 20 20
4 5 5 6 7 8 8 8 9 9 8 7 9 9 6 2 2 6 12 12 10 7 8 10 12 12 12 13 11 13 13 11 11 12 12 13 12 14 12 15 14 14 15 15 14 15 18
5 5 7 7 7 8 8 7 7 6 5 5 7 12 3 1 9 8 11 9 8 9 7 8 9 10 12 11 12 13 13 11 9 11 12 11 12 16 14 11 12 12 11 12 17 18 15
5 5 5 5 6 6 6 6 5 5 5 7 9 9 2 2 12 11 9 9 8 9 9 9 10 9 9 11 14 11 11 8 8 9 11 10 14 18 16 13 12 13 12 12 12 14 17
4 5 5 5 6 5 6 5 5 5 5 8 10 13 8 5 7 9 10 10 10 8 9 8 9 9 10 11 10 12 11 9 9 9 7 8 13 15 17 14 12 15 13 12 13 16 16
4 4 5 5 4 4 5 6 5 4 5 9 12 13 10 12 11 10 9 10 11 11 8 8 10 10 11 13 13 12 11 10 9 8 10 9 15 13 13 12 12 13 13 14 15 13 16
4 4 5 4 4 3 4 4 5 4 5 11 13 14 12 11 10 12 10 11 11 10 9 10 10 9 9 12 11 13 11 11 11 10 11 9 14 14 17 13 13 14 13 13 13 14 14
4 3 3 3 3 3 3 3 3 3 6 12 11 10 11 13 13 14 14 12 12 11 11 12 12 11 12 11 10 10 10 10 10 11 12 11 13 15 17 14 14 17 16 14 13 12 13
3 3 3 3 3 3 2 3 3 3 4 8 10 11 15 17 13 13 12 12 13 13 13 12 11 12 11 10 10 11 11 11 11 11 10 12 14 14 16 19 21 15 14 13 14 15 16
2 2 1 2 2 2 2 2 3 2 3 8 8 11 15 19 13 13 13 13 13 14 13 13 12 11 11 13 15 23 23 20 16 13 13 11 13 20 19 22 17 15 14 15 15 17 14
2 1 1 1 1 1 1 1 1 2 2 5 6 6 10 17 17 12 14 13 17 18 17 14 13 13 12 15 22 28 26 23 23 19 14 12 12 14 24 24 28 17 14 12 14 21 16
1 1 1 1 1 1 1 1 1 1 2 6 6 6 8 13 12 12 14 14 13 15 19 19 18 16 13 17 30 27 26 16 22 24 22 25 24 17 17 18 20 16 14 12 23 20 15
1 1 2 1 1 1 1 1 1 1 1 3 6 6 7 10 11 11 10 13 13 15 18 18 17 17 17 23 25 18 22 17 19 17 17 18 24 28 29 27 24 14 14 17 15 13 13
1 1 1 1 1 1 2 1 2 2 1 1 6 5 4 8 11 9 8 8 8 9 12 17 14 19 13 18 21 19 23 21 20 23 15 19 16 21 19 20 13 12 12 10 9 11 11

GFSGBSN_con_lsi_006.txt.gz
Lid_Strength_Index
-0 0 1 1 0 0 -0 -0 -0 -0 -0 -0 0 0 0 0 0 -0 -0 0 -0 0 0 0 1 1 3 7 6 0 -2 -2 2 4 4 5 6 7 8 8 8 8 8 7 7 7 7
-1 -0 -0 0 0 0 0 -0 -0 -1 -0 -0 -0 0 0 0 0 0 0 0 -0 0 0 0 1 1 6 10 5 -1 -1 3 3 4 5 5 6 6 8 8 8 8 8 8 8 8 8
-0 -1 -1 -1 0 1 0 0 -0 -0 -0 0 0 0 1 1 0 0 0 0 0 1 1 1 2 3 8 8 4 1 3 4 4 5 6 6 6 7 7 9 8 9 10 9 8 9 9
-0 -0 -0 -0 -0 -0 -0 0 0 0 0 1 1 1 1 1 1 1 1 1 1 2 2 2 2 4 8 6 3 3 5 6 5 6 6 6 6 7 8 8 9 11 11 12 9 10 10
-1 -0 -0 -0 0 0 0 1 0 0 1 1 1 1 1 1 1 1 1 2 2 2 2 2 4 7 9 4 7 6 6 7 7 7 7 7 7 8 9 10 11 11 13 13 12 10 10
-0 -0 0 0 -0 -0 0 0 0 1 1 1 1 2 2 2 2 2 2 3 2 2 3 3 6 9 8 9 7 7 7 7 8 7 8 8 9 10 11 11 14 12 13 13 13 10 11
0 0 0 0 0 0 0 1 0 0 1 1 1 2 1 1 1 2 4 5 5 7 7 8 8 9 9 7 6 8 7 8 8 9 10 10 11 12 10 10 10 12 13 13 12 10 12
1 0 -0 -0 -0 0 0 0 0 -0 0 1 1 1 1 1 2 3 5 7 8 8 9 8 8 8 8 7 9 8 7 9 10 11 11 11 12 9 10 11 12 12 13 13 11 11 13
1 1 1 0 1 1 1 1 1 1 1 2 2 2 2 2 2 3 6 7 6 7 10 9 10 10 10 9 10 10 9 10 10 12 11 11 10 10 11 11 13 12 13 13 13 12 11
1 1 1 1 1 1 1 1 2 2 3 3 2 2 2 2 3 4 5 6 6 7 10 10 11 11 10 10 12 10 9 10 11 12 12 12 11 12 12 13 12 14 11 12 13 14 15
1 1 1 1 1 2 2 3 3 3 4 3 3 2 2 2 2 4 5 6 6 9 17 10 12 8 9 11 11 11 10 9 12 12 12 12 13 14 14 12 12 12 13 14 14 14 15
1 1 1 2 3 3 3 4 4 5 4 5 4 3 3 3 3 5 6 6 8 11 18 11 12 12 12 11 12 11 11 10 10 11 12 11 12 12 11 12 12 12 13 13 14 14 17
2 2 3 3 4 4 5 4 5 5 6 5 5 5 3 3 4 5 6 5 12 17 9 11 12 12 13 13 12 12 12 12 12 13 12 11 12 11 11 12 12 12 13 15 16 16 16
2 3 4 4 5 5 5 5 6 6 6 6 6 5 3 3 5 5 4 8 16 12 11 10 10 10 11 10 11 12 12 11 11 12 12 13 14 12 11 10 10 12 12 14 19 18 15
3 4 5 5 5 6 6 6 7 7 7 7 6 4 3 3 5 4 6 14 14 12 10 10 10 12 11 11 10 11 12 11 11 10 12 13 13 11 12 11 10 12 14 11 14 14 16
4 5 5 6 7 7 7 7 8 8 8 8 7 6 5 3 4 4 9 13 11 9 8 9 12 11 13 11 11 11 12 10 10 9 9 10 15 10 10 11 11 12 10 13 13 18 20
4 5 6 6 7 7 7 8 8 8 8 7 7 10 6 4 3 8 13 12 10 7 7 10 11 11 11 12 11 12 12 9 8 8 9 8 12 12 9 10 11 10 12 12 12 13 18
4 5 5 5 6 6 6 7 7 7 6 6 7 12 4 2 9 8 11 10 8 8 6 8 8 10 11 10 11 11 12 9 7 7 10 8 11 15 12 8 8 9 10 11 16 16 14
5 5 6 6 6 7 6 6 6 6 6 7 9 9 3 2 11 11 8 8 7 8 8 8 9 9 8 11 13 10 10 7 7 8 10 9 13 17 15 11 10 12 11 10 11 13 17
5 5 6 6 7 6 6 6 6 5 6 5 8 11 7 5 6 8 10 10 10 7 8 7 8 8 9 11 9 11 10 8 7 7 7 8 12 14 17 14 11 13 12 11 12 16 15
5 5 6 6 6 6 6 7 5 4 5 6 9 11 9 10 9 8 8 9 10 10 7 7 9 9 10 12 11 11 9 9 8 7 8 9 14 12 12 12 12 13 13 12 13 13 16
5 5 4 4 5 4 4 4 6 4 6 8 10 11 9 10 10 9 9 10 10 9 9 10 10 8 8 10 10 12 10 10 10 8 9 8 13 12 14 11 11 13 11 11 11 11 12
3 3 3 3 3 3 3 4 4 5 6 9 8 8 9 12 11 11 11 10 11 10 10 10 10 10 10 9 9 9 8 9 9 10 10 10 12 13 16 12 12 16 13 12 11 10 10
3 3 3 3 3 3 3 3 3 3 5 6 7 8 11 14 12 12 11 10 10 11 11 10 10 11 9 8 8 9 10 10 10 10 9 12 12 12 15 14 19 13 10 11 12 11 12
2 2 2 2 2 3 3 2 3 3 3 5 6 7 10 14 12 12 11 11 11 11 11 11 10 9 8 10 13 16 16 17 14 12 11 10 12 14 16 16 14 13 11 11 12 12 10
1 1 1 1 1 1 1 1 2 2 2 4 5 5 8 12 13 11 12 11 13 13 13 12 10 10 10 12 14 19 19 19 18 17 14 13 11 13 17 18 20 13 11 9 10 15 10
1 1 1 1 1 1 1 1 1 1 1 3 4 4 6 11 10 10 12 12 11 12 13 14 13 12 11 14 17 19 18 15 18 19 17 16 16 16 15 16 13 11 10 9 16 14 9
1 1 1 1 1 0 1 1 1 1 1 3 4 3 6 9 9 9 9 11 11 11 13 14 13 14 14 16 17 16 17 16 16 15 15 15 16 17 18 18 19 10 11 13 10 8 8
1 1 1 1 1 1 1 1 0 0 1 1 5 4 4 8 9 7 7 7 7 8 9 13 11 14 11 13 15 14 16 16 15 17 13 16 13 14 15 14 10 9 9 8 7 8 8

GFSGBSN_con_lsi_009.txt.gz
Lid_Strength_Index
0 1 1 1 1 0 0 -0 -0 -0 -0 -0 -0 -0 -0 -0 -0 -0 -0 -0 -0 -0 -0 0 0 0 2 6 6 0 -2 -1 2 3 4 5 5 6 8 7 7 8 7 7 6 6 6
-1 -0 0 0 0 1 1 -0 -0 -0 -1 -0 -0 -0 0 0 0 -0 -0 -0 -0 0 0 1 0 1 4 8 3 -1 -1 1 3 3 4 4 5 5 7 8 8 7 7 7 7 7 7
0 -1 -1 -1 -0 0 0 0 -0 0 0 0 0 0 1 1 1 0 0 0 0 1 1 1 1 2 6 6 3 0 1 2 3 3 5 4 4 6 6 8 7 8 10 8 8 8 8
-0 -0 -0 -0 -1 -1 -1 -0 0 0 0 1 1 1 1 1 1 1 1 1 1 2 2 2 1 3 7 5 2 3 3 4 3 4 4 4 5 6 7 7 8 10 9 11 8 9 9
-1 -0 -0 -0 0 0 0 0 0 -0 0 0 1 1 1 1 1 1 1 2 3 2 2 2 3 4 8 5 6 5 4 6 5 5 6 6 6 7 8 10 11 9 12 11 10 8 9
0 -1 -0 0 -0 0 0 1 1 1 1 1 1 1 1 1 1 1 2 3 2 2 2 3 5 8 8 8 7 6 6 6 7 7 7 7 8 9 9 10 13 11 11 10 11 8 10
0 0 0 0 0 0 1 1 0 0 0 1 1 1 1 1 1 1 3 3 4 5 5 7 6 8 5 6 6 7 6 7 6 7 10 9 11 12 9 8 9 10 11 11 10 8 10
1 0 0 0 0 1 0 0 0 0 -0 0 1 1 1 1 1 2 3 5 7 7 8 4 5 6 6 6 8 7 6 8 8 10 9 11 13 10 8 9 10 10 11 11 10 9 11
1 1 0 0 1 1 1 1 0 -0 0 1 1 1 1 2 2 3 4 6 5 6 9 7 7 8 8 7 8 8 8 9 10 11 11 12 10 9 10 10 11 11 12 12 12 10 10
1 1 1 1 1 1 1 1 1 1 1 2 2 2 2 2 4 2 4 5 5 6 10 9 9 9 9 9 10 9 8 9 10 11 10 11 9 11 11 12 11 13 10 11 12 13 14
1 1 1 2 2 2 2 2 2 3 3 3 3 2 2 2 2 3 5 5 5 6 17 9 11 7 9 11 11 11 8 9 11 11 11 11 12 12 12 11 10 12 11 12 12 13 13
1 1 1 1 2 2 3 3 4 4 4 4 4 3 2 2 1 3 4 5 5 11 17 10 10 11 11 10 11 10 10 9 9 11 10 11 11 11 10 10 10 11 12 11 11 12 16
1 1 1 2 3 3 4 4 4 5 5 6 6 4 3 2 4 3 4 4 12 17 9 10 11 11 11 12 12 11 11 11 11 12 12 10 10 10 10 11 11 11 12 15 16 16 17
1 3 3 3 4 4 4 5 5 5 6 7 6 4 3 3 5 5 3 8 17 12 11 9 9 9 11 9 10 11 10 10 8 11 11 12 13 10 10 10 10 10 10 15 20 18 16
3 3 4 4 4 5 5 6 6 7 7 7 6 4 3 2 3 3 5 14 13 11 9 10 10 12 11 9 9 9 9 10 9 9 12 12 12 9 9 9 9 10 12 10 14 14 17
4 4 5 5 5 6 6 7 8 8 8 7 5 5 5 2 3 3 9 12 11 9 9 9 12 10 12 10 11 10 11 8 9 8 8 10 14 9 9 9 8 9 8 15 14 21 21
4 5 6 6 7 7 7 8 8 8 8 8 7 10 6 4 3 7 13 12 10 8 7 9 10 11 10 11 11 12 11 9 7 8 8 8 11 11 9 10 11 10 11 11 11 13 18
4 4 5 5 6 7 7 7 8 8 6 7 7 12 4 2 8 8 11 10 9 9 8 8 8 9 11 10 11 11 11 9 6 7 10 8 11 15 12 8 7 9 10 11 15 17 14
4 5 5 6 6 6 6 7 7 7 7 6 8 8 3 3 11 10 8 9 8 9 8 8 9 8 7 10 12 10 9 7 6 8 10 9 13 17 15 10 10 12 10 10 11 12 16
5 5 6 6 6 6 6 7 6 7 6 5 8 12 7 5 5 8 9 9 9 6 8 7 8 7 9 10 8 10 9 8 7 7 7 7 11 14 17 13 11 13 12 11 13 16 16
5 5 5 6 5 6 6 6 6 7 7 6 8 11 9 11 9 8 8 9 10 10 7 7 8 8 9 11 10 10 8 8 7 7 7 8 14 12 11 11 11 11 12 11 13 12 15
5 5 5 5 6 6 6 6 6 6 7 9 11 11 9 8 7 8 9 10 10 9 9 9 9 9 8 10 10 11 10 9 10 8 8 7 13 11 14 11 11 12 11 11 11 11 11
5 6 5 6 6 6 6 6 6 5 7 9 8 7 8 10 10 9 9 9 9 8 9 9 9 9 10 9 9 9 8 8 8 9 10 10 11 13 16 12 12 15 13 11 11 10 10
4 4 4 5 4 4 4 4 3 3 5 6 6 7 10 12 11 11 11 9 10 9 10 9 9 9 9 7 8 9 9 10 9 9 8 11 12 12 15 14 20 13 10 11 12 12 10
3 3 3 3 2 2 3 2 3 3 3 5 5 7 9 12 11 11 11 10 9 10 10 10 9 8 7 9 12 14 15 15 13 11 11 9 12 15 17 17 14 13 11 11 13 13 9
3 2 2 2 2 2 2 2 2 2 2 4 5 4 7 10 11 10 10 10 11 11 12 11 9 8 8 11 13 17 18 16 17 15 13 12 11 13 15 19 20 14 11 10 10 15 8
1 1 1 1 1 1 1 2 2 2 2 2 4 3 6 10 9 9 11 11 9 10 11 11 11 11 9 13 15 16 17 14 18 18 16 16 15 16 15 16 14 9 10 9 15 13 8
1 1 1 1 1 0 1 1 1 1 1 2 3 2 5 8 7 8 8 9 9 9 11 13 12 12 12 14 15 15 16 15 16 14 15 15 16 16 15 17 19 9 10 12 9 7 7
1 1 1 0 0 1 1 1 0 0 0 1 5 3 2 6 7 5 5 5 6 7 8 11 10 12 11 13 12 12 15 14 15 18 12 16 13 13 13 13 9 8 8 7 6 7 7

GFSGBSN_con_lsi_015.txt.gz
Lid_Strength_Index
1 0 1 1 1 1 0 -0 -0 -0 -0 -0 -0 -0 0 0 -0 -0 -0 -1 -1 -1 -1 -0 -0 -0 3 7 7 1 -2 -1 2 4 6 6 8 9 11 10 10 11 10 8 8 9 10
0 -0 -0 0 1 1 1 0 -0 -1 -1 -1 -0 -0 0 0 -0 -0 -0 -1 -1 -1 -0 0 1 1 5 10 3 0 1 2 4 5 6 7 8 8 10 10 11 10 10 10 10 10 10
0 0 -0 -0 -0 0 1 1 1 0 -0 -0 -0 -0 0 0 -0 -0 -0 -0 -0 0 1 1 1 2 6 8 2 1 1 3 4 5 6 6 7 8 9 10 9 10 12 11 11 11 11
-0 -0 0 -0 -0 -0 -0 0 0 0 0 0 1 1 1 0 0 -0 -0 -0 -0 1 1 1 1 4 10 6 4 3 4 6 5 6 6 7 6 8 9 9 10 12 14 15 11 11 11
-0 0 0 0 0 0 0 -0 -0 -0 0 1 1 1 1 1 1 1 0 1 2 2 2 1 4 7 9 5 7 6 6 6 7 7 8 6 8 10 11 13 15 15 17 15 13 11 12
-0 -0 -0 0 0 0 0 1 1 1 1 0 0 1 1 0 1 1 1 1 2 2 2 2 4 10 9 10 8 7 8 6 8 9 9 9 11 13 14 14 17 16 16 14 15 12 13
-1 -0 -0 -0 -0 0 0 1 1 1 1 1 1 1 1 1 1 0 2 5 6 7 7 8 8 10 9 8 7 8 8 9 8 10 13 11 14 16 14 13 13 14 15 15 14 12 14
0 -0 -0 -0 -0 -0 0 0 1 1 1 1 1 1 0 1 1 1 3 7 8 7 9 6 6 6 7 8 10 9 8 11 11 14 13 14 16 12 12 12 13 14 15 16 14 12 14
1 1 1 0 0 -0 0 0 1 1 0 1 1 1 1 1 1 2 5 7 6 8 11 8 8 8 9 8 10 11 10 11 13 14 14 15 13 11 12 13 14 15 15 16 15 14 14
1 1 1 2 1 1 1 1 1 1 1 1 1 0 1 1 3 3 6 6 6 8 14 11 11 11 10 10 12 10 9 11 12 13 13 14 12 12 13 13 13 16 13 14 14 16 18
1 1 2 2 2 2 2 2 2 2 2 2 2 1 1 1 4 5 6 6 7 9 19 12 12 9 10 11 11 11 10 11 13 13 13 13 14 14 14 13 12 14 14 15 15 17 17
1 1 2 2 2 2 2 2 2 2 3 3 3 2 2 3 4 4 6 7 8 14 19 13 12 12 13 12 12 11 12 11 11 13 13 13 13 13 13 13 13 13 14 15 15 16 20
1 1 2 1 2 2 2 2 2 2 3 3 3 3 3 3 5 5 5 6 13 17 11 13 14 13 13 14 13 13 14 15 15 16 17 14 13 13 12 14 13 14 15 19 20 21 20
1 1 2 2 2 2 2 2 2 2 4 4 4 3 3 3 5 5 6 10 17 13 13 11 11 12 12 13 13 13 14 15 13 14 16 15 16 13 12 13 13 14 14 17 21 21 20
1 2 2 2 2 2 2 2 3 4 4 5 4 4 4 3 5 4 7 14 15 12 10 11 11 13 13 11 11 13 14 13 11 11 13 14 14 12 12 12 11 14 15 13 16 20 19
2 2 2 3 3 3 4 5 6 5 5 5 6 7 6 3 4 5 10 13 12 9 10 11 14 12 15 13 13 13 13 12 12 11 11 13 16 12 13 12 12 12 10 16 15 22 23
4 4 4 4 5 5 6 6 6 6 5 5 8 10 6 4 4 7 13 12 10 9 9 11 13 13 14 13 12 13 12 12 11 12 11 11 12 13 12 12 12 12 13 13 13 15 20
5 5 6 6 6 6 7 6 6 5 5 6 9 12 6 4 12 11 13 11 9 10 9 10 11 11 12 11 12 12 13 11 9 9 11 10 12 17 14 10 9 10 12 12 16 17 16
5 5 6 6 7 7 7 7 7 6 6 8 10 10 5 6 14 13 11 11 10 11 10 10 11 11 10 11 13 11 11 9 8 9 10 9 13 18 17 14 11 13 12 11 11 13 16
5 5 6 7 7 7 8 8 7 6 8 8 11 13 10 9 11 12 12 13 13 9 10 10 10 9 10 11 10 12 11 9 8 8 7 7 12 15 17 16 13 14 13 12 12 16 16
4 5 5 6 6 6 8 8 8 9 8 8 11 14 11 14 12 11 11 11 12 12 10 9 11 10 10 12 12 12 10 10 9 7 9 9 15 13 13 12 13 13 13 13 14 13 16
4 4 4 5 4 5 6 6 6 7 8 9 13 13 12 12 10 11 11 12 12 11 10 11 11 10 10 12 11 15 12 12 12 11 11 10 17 15 18 13 13 15 14 14 14 13 13
3 3 4 4 5 5 6 6 5 6 8 12 12 11 11 13 14 13 12 12 12 11 11 11 10 11 12 13 11 11 11 11 11 12 13 13 16 20 20 15 16 21 16 15 14 13 14
3 3 4 4 4 5 6 6 6 6 7 10 10 11 14 16 14 14 14 12 12 11 12 13 11 12 12 10 11 12 13 13 13 12 10 14 17 20 24 23 28 17 14 14 14 14 15
3 3 3 4 4 4 5 5 5 5 6 9 10 11 14 19 14 14 14 15 14 13 13 13 13 11 10 12 16 20 21 19 17 15 14 11 14 22 23 28 19 16 14 15 15 17 15
2 2 2 3 4 4 4 4 4 4 3 8 10 10 13 17 17 14 15 14 15 16 16 14 12 12 11 13 19 26 25 21 22 18 15 13 12 16 24 23 27 18 14 13 14 20 17
1 1 2 2 2 2 2 2 2 2 3 7 9 9 12 17 13 13 14 13 12 13 15 15 15 14 12 16 26 24 24 17 22 24 24 24 25 18 18 19 20 16 15 13 23 19 17
2 1 1 1 1 1 2 2 2 2 2 4 7 7 10 15 12 11 11 12 12 13 16 16 16 16 17 22 21 17 22 17 20 18 19 19 22 26 28 30 25 14 15 17 15 12 13
1 1 1 1 1 1 1 1 1 1 1 2 6 5 6 10 12 8 8 8 9 9 13 17 15 18 14 18 20 19 24 22 22 25 16 20 17 21 19 20 14 13 13 11 10 12 11